Airfield :
LOGIN :

Register | Disclaimer

   EN    FR    IT 

 










Legend :    VFR   Marginal VFR   IFR   Intensive IFR   Very Intensive IFR
Visi :
Ceiling :
>= 8 km
>= 3000ft
5 to 8 km
1000 to 3000 ft
1500m to 5 km
500 to 1000 ft
800 to 1500m
200 to 500 ft
< 800m
< 200 ft
Symbols :   Thunderstorms  Fog  Heavy snow  Heavy precipitations  Wind > 20 kt
SIGMETs :     Misc.  Thunderstorms  Icing  Turbulence  Mountain Waves  Volcanic Ashes







- Airport Elevation : 388 ft
- IATA code : QYR
- Download approach charts


LFQB - Troyes Barberey

CURRENT METAR :
  • 181200Z AUTO 18005KT 9999 BKN041 07/03 Q1025

EXPIRED METARs :
  • 181130Z AUTO 18006KT CAVOK 07/04 Q1026
  • 181100Z AUTO 18004KT 9999 BKN037 06/04 Q1026
  • 181030Z AUTO 00000KT 6000 BKN003 OVC036 04/03 Q1026
  • 181000Z AUTO VRB02KT 4100 BR OVC002 04/03 Q1026
  • 180930Z AUTO VRB01KT 3500 BR OVC002 03/03 Q1026

TAF N/A
No reported NOTAMs for that airfield.



MET'MAP, your aeronautical weather chart ! - Copyright ORBIFLY December 2007 - Disclaimer

ORBIFLY MET'MAP TEAM :

Programming & Development : Alexandra Zaïnal
Concept & Development : Baudouin d'Aumeries
Co-Development & Prog : Marc-Olivier Méhu
Technical & hardware support : Manuel Goepfert

Contact : metmap@orbifly.com




SOURCES & CREDITS :

   NOAA